{"data":{"norad_id":47379,"epoch":"2026-09-20T03:53:17.963808Z","epoch_age_seconds":51211,"freshness":"FRESH","line1":"1 47379U 21005AG  26263.16201347  .00001400  00000+0  56858-4 0  9991","line2":"2 47379  53.1610 188.5015 0001325 102.2657 257.8493 15.31710516313522","mean_motion":15.31710516,"eccentricity":0.0001325,"inclination_deg":53.161,"raan_deg":188.5015,"arg_perigee_deg":102.2657,"mean_anomaly_deg":257.8493,"bstar":5.6858e-5,"rev_number":31352,"period_min":94.012542511003,"perigee_km":469.80117570788,"apogee_km":471.61611980453,"semimajor_km":6848.8456477562,"source":"CELESTRAK","updated_at":"2026-09-20T09:00:38.592562Z"}}